www.pogodaiklimat.ru

Погода и климат >> Архив погоды >> Панама >> Santiago


ПОГОДА в Santiago

  • Прогноз погоды в Santiago
  • Монитор погоды в Santiago
  • Климат города

АРХИВ ПОГОДЫ в Santiago

Время (UTC), дата Ветер
(напр.,м/с)
 
Видим.   Явления Облачность Т
(С)
Тd
(С)
f
(%)
Тe
(С)
Тes
(С)
Комфортность P
(гПа)
Po
(гПа)
Тmin
(С)
Tmax
(С)
R
(мм)
R24
(мм)
S
(см)
18 11.10 ЮЗ 5 9000 м осадки на расстоянии 10/5 450 м
[Cu med, cong Ac trans]
+27.6 +24.1 81 +38 +40 очень
душно
1012.6 1002.6 +23.0 +27.8
21 11.10 ЮЗ 5 4000 м дождь {туман} 10/4 400 м
[St Ac lent]
+24.0 +23.4 96 +32 +33 очень
душно
1011.9 1001.9
00 12.10 штиль 0 3000 м 10/4 300 м
[St Ac lent]
+22.6 +22.1 97 +30 +30 очень
душно
1011.8 1001.8 +23.0 +27.8 616
12 12.10 штиль 0 6000 м дымка 10/4 150 м
[Sc Ac und]
+22.8 +22.2 96 +31 +31 очень
душно
1011.9 1001.9 +22.8 +27.8 2
15 12.10 штиль 0 5000 м осадки на расстоянии 10/4 300 м
[Cu med, cong As trans]
+25.2 +23.3 89 +34 +38 очень
душно
1013.0 1003.0
18 12.10 ЮЗ 2 3000 м дождь 10/4 300 м
[St Ac lent]
+23.4 +22.0 92 +32 +34 очень
душно
1013.4 1003.4 +22.8 +27.4 21
21 12.10 штиль 0 5000 м слабый дождь {морось} 10/4 300 м
[St Ac lent]
+23.2 +22.1 94 +32 +33 очень
душно
1012.4 1002.4
00 13.10 штиль 0 8000 м осадки на расстоянии {дождь, морось} 10/4 300 м
[St Ac lent]
+23.4 +22.7 96 +33 +33 очень
душно
1012.2 1002.2 +22.8 +27.4 48
03 13.10 штиль 0 8000 м осадки на расстоянии {дождь, морось} 10/4 300 м
[St Ac lent]
+23.4 +22.7 96 +33 +33 очень
душно
1012.2 1002.2 +22.8 +27.4 48
12 13.10 штиль 0 15 км 9/5 180 м
[Sc Ac trans]
+23.0 +22.1 95 +31 +31 очень
душно
1012.5 1002.5 +22.4 +27.4 22
18 13.10 ЮЗ 4 8000 м осадки на расстоянии {дождь} 10/4 300 м
[St As op]
+26.8 +24.1 85 +37 +39 очень
душно
1012.9 1002.9 +22.4 +27.4
21 13.10 З 4 7000 м слабая морось {дождь} 10/4 300 м
[St Ac lent]
+24.2 +22.8 92 +32 +32 очень
душно
1012.0 1002.0
00 14.10 З 2 7000 м слабая морось {дождь} 10/3 240 м
[St Ac lent]
+23.0 +22.2 95 +31 +31 очень
душно
1012.2 1002.2 +22.4 +27.4 4
12 14.10 штиль 0 4000 м дождь 10/5 180 м
[Sc As op]
+23.2 +22.4 95 +32 +32 очень
душно
1012.6 1002.6 +22.6 +27.4 18
15 14.10 штиль 0 15 км 10/6 300 м
[Sc Ac trans]
+25.2 +23.5 90 +34 +37 очень
душно
1013.2 1003.2
18 14.10 ЮЗ 3 5000 м 10/10 300 м
[]
+27.2 +24.2 84 +38 +38 очень
душно
1012.6 1002.6 3
12 15.10 штиль 0 3000 м слабая морось 10/6 240 м
[St Cs]
+23.8 +22.9 95 +32 +32 очень
душно
1012.1 1002.1 +23.4 +27.4 20
15 15.10 штиль 0 15 км 10/6 300 м
[Sc Ci fib]
+26.8 +23.5 82 +36 +42 очень
душно
1012.4 1002.4
18 15.10 З 2 6000 м слабая морось 10/4 300 м
[Cu med, cong As trans]
+26.2 +24.6 91 +37 +42 очень
душно
1011.6 1001.6 +23.4 +28.8 0.3
21 15.10 штиль 0 8000 м осадки на расстоянии {морось} 8/8 300 м
[Cu med, cong]
+27.2 +23.3 79 +37 +38 очень
душно
1010.1 1000.1
00 16.10 штиль 0 6000 м осадки на расстоянии {дождь, морось} 10/4 150 м
[Frnb As op]
+24.4 +23.6 95 +33 +33 очень
душно
1010.2 1000.2 +23.4 +28.8 1
12 16.10 штиль 0 15 км 9/9 300 м
[St]
+23.4 +22.9 97 +33 +33 очень
душно
1011.7 1001.7 +23.0 +28.8 1
15 16.10 З 2 20 км 9/5 360 м
[Cu hum Ac trans]
+27.0 +23.7 82 +37 +40 очень
душно
1012.6 1002.6
18 16.10 З 2 9000 м слабая морось 6/6 360 м
[Cu med, cong]
+28.4 +23.2 73 +38 +46 очень
душно
1011.4 1001.4 +30.0
21 16.10 З 3 20 км 6/3 450 м
[Cu med, cong Ac lent]
+29.6 +23.3 69 +40 +42 очень
душно
1008.5 998.5
00 17.10 штиль 0 20 км 6/1 300 м
[Sc diur, vesp Ci fib]
+25.4 +22.6 85 +33 +33 очень
душно
1008.6 998.6 +23.0 +30.4
12 17.10 штиль 0 20 км 6/1 300 м
[Sc Ci fib]
+23.2 +22.4 95 +32 +32 очень
душно
1010.1 1000.1 +22.8 +30.4
15 17.10 штиль 0 20 км 10/6 360 м
[Sc Ac trans]
+26.8 +23.5 82 +36 +39 очень
душно
1010.5 1000.5
18 17.10 З 3 20 км 10/6 450 м
[Cu med, cong Ci fib]
+30.8 +24.6 70 +44 +49 опасность
перегрева
1011.0 1001.0 +22.8 +31.4
21 17.10 штиль 0 8000 м осадки на расстоянии 10/4 450 м
[Cu med, cong As op]
+26.6 +23.6 84 +36 +37 очень
душно
1009.6 999.6
00 18.10 штиль 0 5000 м слабая морось 10/4 300 м
[Frnb As op]
+24.8 +23.7 94 +34 +34 очень
душно
1010.0 1000.0 +22.8 +31.6
12 18.10 штиль 0 15 км 10/1 300 м
[Cu Sc Ac lent]
+23.2 +23.0 99 +32 +32 очень
душно
1011.9 1001.9 1

 

Местоположение метеостанции Santiago (Панама): широта 8.08 долгота -80.95 высота над уровнем моря 88 м.

В архиве по умолчанию представлена погода в Santiago за последнюю неделю. Архивные данные за месяц целиком и за предыдущие месяцы, начиная с января 2011 года, Вы можете получить, выбрав интересующий диапазон дат из раскрывающегося списка и нажав кнопку "Ввод!".


*Определитесь, кто Вы:
робот инопланетянин человек

Внимание! Время в таблицах - всемирное. Для получения местного времени необходимо прибавить поправку, которая в Santiago равна -5 ч.

Смотрите также архив погоды в соседних городах и на ближайших метеорологических станциях:

Погода в David (Панама) (165 км)
Погода в Puerto Limon (Коста-Рика) (314 км)
Погода в San Jose Airport (Коста-Рика) (408 км)
Погода в San Jose (Коста-Рика) (416 км)
Погода в Apartado (Колумбия) (469 км)
Погода в San Andres Isla (Колумбия) (507 км)
Погода в Bluefields (Никарагуа) (534 км)
Погода в Quibdo (Колумбия) (546 км)
Погода в Liberia (Коста-Рика) (567 км)
Погода в Monteria (Колумбия) (567 км)

Пояснения к столбцам:

Ветер - указаны скорость ветра в м/с - средняя за 10 мин, порывы в срок и между сроками (в фигурных скобках) и направление, откуда дует ветер: С - северный, СВ - северо-восточный, В - восточный, ЮВ - юго-восточный, Ю - южный, ЮЗ - юго-западный, З - западный, СЗ - северо-западный.
Видимость - горизонтальная дальность видимости в метрах или километрах. При видимости от 1 до 10 км при отсутствии осадков обычно наблюдается дымка, при ухудшении видимости до 1 км и менее - туман. В сухую погоду видимость может ухудшаться дымом, пылью или мглою.
Явления - указаны атмосферные явления, наблюдавшиеся в срок или в последний час перед сроком; фигурными скобками обозначены явления, наблюдавшиеся между сроками (за 1-3 часа до срока); квадратными скобками обозначены град или гололедные отложения с указанием их диаметра в мм.
Облачность - указаны через наклонную черту общая и нижняя облачность в баллах и высота нижней границы облаков в метрах; квадратными скобками обозначены формы облаков: Ci - перистые, Cs - перисто-слоистые, Cc - перисто-кучевые, Ac - высококучевые, As - высокослоистые, Sc - слоисто-кучевые, Ns - слоисто-дождевые, Cu - кучевые, Cb - кучево-дождевые. Подробнее классификацию облаков см. в Атласе облаков (PDF).
T - Температура воздуха - температура, измеренная на высоте 2 м над землей.
Td - Температура точки росы - температура, при понижении до которой содержащийся в воздухе водяной пар достигнет насыщения.
f - Относительная влажность воздуха - влажноcть воздуха, измеренная на высоте 2 м над землей.
Te - Эффективная температура - температура, которую ощущает одетый по сезону человек в тени. Характеристика душности погоды. При расчете учитывается влияние влажности воздуха и скорости ветра на теплоощущения человека.
Tes - Эффективная температура на солнце - температура, которую ощущает человек, с поправкой на солнечный нагрев. Характеристика знойности погоды. Зависит от высоты солнца над горизонтом, облачности и скорости ветра. Ночью, в пасмурную погоду, а также при ветре 12 м/с и более поправка равна нулю.
P - Атмосферное давление - приведенное к уровню моря атмосферное давление.
Po - Атмосферное давление - измеренное на уровне метеостанции атмосферное давление.
Tmin - Минимальная температура - минимум температуры воздуха на высоте 2 м над землей.
Tmax - Максимальная температура - максимум температуры воздуха на высоте 2 м над землей.
R - Количество осадков - Количество выпавших осадков за период времени, мм. При наведении курсора мыши на число - период времени, за который выпало указанное количество осадков.
R24 - Количество осадков - Количество выпавших осадков за 24 часа, мм.
S - Снежный покров - Высота снежного покрова, см. При наведении курсора мыши на число - состояние снежного покрова и степень покрытия местности в баллах.